Regional Weather Roundup
Issued by NWS

Home | Current Version | Previous Version | Text Only | Print | Product List | Glossary Off
Versions: 1 2 3 4 5 6 7 8 9 10 11 12 13 14 15 16 17 18 19 20 21 22 23 24 25 26 27

000
ASUS45 KTFX 210510
RWRMT
MONTANA REGIONAL WEATHER ROUNDUP
NATIONAL WEATHER SERVICE GREAT FALLS MT
1000 PM MST TUE FEB 20 2018

NOTE: "FAIR" INDICATES FEW OR NO CLOUDS BELOW 12000 FEET WITH NO
SIGNIFICANT WEATHER AND/OR OBSTRUCTIONS TO VISIBILITY.

MTZ001>007-043-210600-
WEST OF THE DIVIDE

CITY           SKY/WX    TMP DP  RH WIND       PRES   REMARKS
KALISPELL      CLOUDY     7   6  96 CALM      30.17S
MISSOULA       MOCLDY    11   2  67 CALM      30.15S
BUTTE          CLOUDY   -12 -18  74 S3        29.99R
MULLAN PASS    MOCLDY     0  -6  76 CALM      29.90R
ANACONDA         N/A     -4 -11  71 S5        30.04S
DEER LODGE       N/A     -6 -11  77 CALM      30.09R
HAMILTON         N/A      7   0  72 MISG      30.13R
RONAN            N/A      1  -2  85 CALM      30.19R
$$

MTZ008-052>055-210600-
SOUTHWEST MONTANA

CITY           SKY/WX    TMP DP  RH WIND       PRES   REMARKS
BOZEMAN        FAIR      -8 -14  74 CALM      30.08R
DILLON         FAIR     -15 -15 100 SE7       30.00R WCI -31
ENNIS          CLOUDY     3  -8  60 S12       30.04S WCI -13
W YELLOWSTONE  MOCLDY     0  -4  85 S6        29.97R WCI -12
THREE FORKS      N/A    -10 -18  68 CALM      30.07R
TWIN BRIDGES     N/A     -3 -16  54 CALM      30.01R
$$

MTZ009-010-012-014-046-048-049-054-210600-
EAST SLOPES AND CENTRAL MONTANA

CITY           SKY/WX    TMP DP  RH WIND       PRES   REMARKS
CUT BANK       CLOUDY     2  -5  72 SW5       30.08R
GREAT FALLS    FAIR       2  -9  60 E7        30.11R WCI -11
MALMSTROM AFB  PTCLDY    -8 -14  74 VRB2      30.15R
HELENA         FAIR      -3  -9  75 N3        30.13R
AUGUSTA        MOCLDY    -4 -10  74 N12       30.04R WCI -22
CHOTEAU          N/A     -4  -9  77 SW5       30.11R
RAYNESFORD     FAIR      -7 -14  72 CALM      30.09R
WHITE SULPHUR    N/A     -9 -17  70 CALM      30.00S
$$

MTZ011-013-016-021-045-047-050-051-210600-
NORTH CENTRAL MONTANA

CITY           SKY/WX    TMP DP  RH WIND       PRES   REMARKS
HAVRE          FAIR     -12 -17  78 W9        30.20R WCI -30
LEWISTOWN      FAIR     -11 -15  82 SE6       30.08S WCI -25
N BAR RANCH    MOCLDY    -4 -15  59 W13       30.09R WCI -23
CHINOOK          N/A     -9 -15  77 N3        30.22R
GEYSER         FAIR       0 -12  57 CALM      30.08R
STANFORD       FAIR      -4 -11  70 CALM      30.05S
$$

MTZ017>020-022>027-061-062-210600-
NORTHEAST MONTANA

CITY           SKY/WX    TMP DP  RH WIND       PRES   REMARKS
GLASGOW        FAIR      -8 -15  71 W5        30.20R
GLENDIVE       FAIR     -12 -17  78 S9        30.23R WCI -30
JORDAN           N/A     -6 -14  68 W12       30.19R WCI -25
MALTA          MOCLDY   -18 -22  83 W13       30.20S WCI -41
SIDNEY         FAIR     -10 -16  74 SW12      30.25R WCI -30
WOLF POINT     FAIR     -11 -17  75 SW7       30.24R WCI -26
PLENTYWOOD       N/A     -4 -13  65 CALM      30.15R
SCOBEY           N/A     -9 -21  55 CALM      30.12R
$$

MTZ028>42-056>058-210600-
SOUTHCENTRAL AND SOUTHEAST MONTANA

CITY           SKY/WX    TMP DP  RH WIND       PRES   REMARKS
BAKER          FAIR      -6 -11  79 CALM      30.20R
BILLINGS       MOCLDY     2  -7  66 SW21      30.16R WCI -20
LIVINGSTON     FAIR      -5 -12  72 CALM      30.05R
MILES CITY     FAIR      -9 -13  83 S6        30.24R WCI -22
BIG TIMBER     CLOUDY     0  -8  71 CALM      30.10R
EKALAKA          N/A      0 -12  56 SW14      30.09R WCI -18
FORSYTH          N/A     -6 -11  77 W6        30.23S WCI -18
LAUREL           N/A     -2 -11  65 SW13      30.19R WCI -21
$$

REGIONAL REPORTS...DAKOTAS

CITY           SKY/WX    TMP DP  RH WIND       PRES   REMARKS
WILLISTON      MOCLDY    -4 -12  68 S8        30.23R WCI -19
MINOT          FAIR       3  -7  63 SW22G30   30.17R WCI -19
DICKINSON      FAIR      -6 -15  65 W12       30.18R WCI -25
BEACH          FAIR      -6 -15  65 SW17      30.21S WCI -28
CROSBY         FAIR      -4 -13  65 SW17      30.17R WCI -26
TIOGA          MOCLDY    -4  -9  77 W17       30.17R WCI -26
WATFORD CITY   FAIR      -6 -13  71 SW9       30.22R WCI -22
BISMARCK       FAIR      -2  -9  72 W7        30.28R WCI -15
GRAND FORKS    MOCLDY     4  -3  73 SW10      30.23S WCI -11
FARGO          FAIR       2  -4  76 SW12      30.29R WCI -15
BUFFALO SD       N/A     -9 -16  71 W17       30.10R WCI -32
RAPID CITY     FAIR     -11 -14  86 CALM      30.24R
$$

REGIONAL REPORTS...WYOMING/IDAHO/WASHINGTON

CITY           SKY/WX    TMP DP  RH WIND       PRES   REMARKS
GILLETTE       FAIR      -7 -17  62 S6        30.14R WCI -20
SHERIDAN       FAIR     -12 -20  67 CALM      30.15R
BUFFALO WY     FAIR      -1 -14  53 SW7       30.08R WCI -14
CODY           FAIR     -15 -20  78 CALM      30.08R
YELLOWSTONE LA   N/A    -21 -26  77 NW3       29.94R
IDAHO FALLS    FAIR      11   1  64 SE7       30.13R WCI   0
SALMON         CLOUDY    14   6  70 CALM      30.08R
BOISE          CLOUDY    25   5  42 SE9       30.15R WCI  15
SPOKANE        FAIR      15   7  70 NE5       30.21R
$$

REGIONAL REPORTS...ALBERTA

CITY           SKY/WX    TMP DP  RH WIND       PRES   REMARKS
$$

REGIONAL REPORTS...SASKATCHEWAN

CITY           SKY/WX    TMP DP  RH WIND       PRES   REMARKS
$$




USA.gov is the U.S. government's official web portal to all federal, state and local government web resources and services.